Retour au catalogue

BEIDOU 2 G8

ActifNavigationGEO
NORAD 44231·PAYLOAD·🇨🇳 China

Lancé May 17, 2019 depuis Xichang Satellite Launch Center

Loading…

TLE

FraisSource: Space-Track

Époque: Sep 14, 2026, 12:17 UTC

1 44231U 19027A   26257.51205365 -.00000254  00000-0  00000-0 0  9994
2 44231   1.8793  74.3138 0009063 278.8353 329.2382  1.00271621 26977

Suivez BEIDOU 2 G8 en temps réel avec AllMySat

Download on the App Store